Powrót do katalogu

OPS 8314 (2)

AktywnyMilitariaPO
NORAD 6822·PAYLOAD·🇺🇸 United States

Wystrzelony Oct 10, 1972 z Vandenberg Space Force Base

Loading…

Następne Przeloty (najbliższe 24 godziny)

TLE

ŚwieżeSource: Space-Track

Epoka: Sep 14, 2026, 11:08 UTC

1 06822U 72079C   26257.46441356 -.00000024  00000-0 -67695-4 0  9993
2 06822  95.6362  69.6570 0028542 255.0973 118.5092 12.55632515470918

Śledź OPS 8314 (2) w czasie rzeczywistym z AllMySat

Download on the App Store